METAR AND TAF INFORMATION
METAR FOR WAJJ
ADDS - METARS form results

(1947 UTC 17 January 2020)
Data provider http://aviationweather.gov/metar/data/
 
METAR text: WAJJ 171900Z 25005KT 9999 FEW013 27/23 Q1007 NOSIG
Conditions at: WAJJ (JAYAPURA/SENTANI, ID) observed 1900 UTC 17 January 2020
Temperature: 27.0°C (81°F)
Dewpoint: 23.0°C (73°F) [RH = 79%]
Pressure (altimeter): 29.73 inches Hg (1007.0 mb)
Winds: from the WSW (250 degrees) at 6 MPH (5 knots; 2.6 m/s)
Visibility: 6 or more miles (10+ km)
Ceiling: at least 12,000 feet AGL
Clouds: few clouds at 1300 feet AGL
Weather: no significant weather observed at this time

 AIRPORT MAP

 RUNWAY INFORMATION
Runway 12 Runway length 7161 ft Runway width 148 ft
Runway elevation 292 ft Runway displaced threshold 0 ft Runway heading 127
Runway 30 Runway length 7161 ft Runway width 148 ft
Runway elevation 289 ft Runway displaced threshold 0 ft Runway heading 307

 AIRPORT FREQUENCIES
Type APP Name JAYAPURA A Frequency 119.1 MHZ
Type ATIS Name ATIS Frequency 128.8 MHZ
Type INFO Name JAYAPURA I Frequency 295.6 MHZ
Type TWR Name TWR Frequency 118.1 MHZ

 AIRPORT NEAR NAVIGATION AIDS
Type VOR-DME Name Jayapura Frequency 116200 KHZ
Type NDB Name Jayapura Frequency 395 KHZ




Powered by Virtual Airlines Manager [v2.6.2]